This is the latest recevied weather packets stored in our database for station/object XE1E-15. If no packets are shown the sender has not sent any weather packets the latest 10 day(s).
| Time | Temp. | Humidity | Pressure | Rain* | Wind** | Luminosity | Snow |
|---|---|---|---|---|---|---|---|
| 1778026125 | 29.44° C | 33% | 1021.2 hPa | - | - | - | - |
| 1778025164 | 29.44° C | 31% | 1020.9 hPa | - | - | - | - |
| 1778024204 | 30° C | 32% | 1020.7 hPa | - | - | - | - |
| 1778023244 | 30.56° C | 32% | 1020.7 hPa | - | - | - | - |
| 1778022284 | 31.11° C | 31% | 1021 hPa | - | - | - | - |
| 1778021323 | 31.11° C | 30% | 1021.1 hPa | - | - | - | - |
| 1778020363 | 30.56° C | 32% | 1021.2 hPa | - | - | - | - |
| 1778019403 | 30° C | 34% | 1021.4 hPa | - | - | - | - |
| 1778018443 | 28.89° C | 34% | 1021.6 hPa | - | - | - | - |
| 1778017483 | 28.33° C | 35% | 1021.5 hPa | - | - | - | - |
| 1778016523 | 28.89° C | 36% | 1021.8 hPa | - | - | - | - |
| 1778015562 | 28.89° C | 35% | 1021.9 hPa | - | - | - | - |
| 1778014125 | 31.11° C | 27% | 1021.9 hPa | - | - | - | - |
| 1778013165 | 30.56° C | 26% | 1021.9 hPa | - | - | - | - |
| 1778012301 | 30.56° C | 26% | 1022.1 hPa | - | - | - | - |
| 1778012204 | 30.56° C | 26% | 1022.1 hPa | - | - | - | - |
| 1778011244 | 32.78° C | 24% | 1022.2 hPa | - | - | - | - |
| 1778010284 | 31.67° C | 25% | 1022.4 hPa | - | - | - | - |
| 1778009324 | 32.22° C | 27% | 1022.7 hPa | - | - | - | - |
| 1778008363 | 30° C | 28% | 1022.9 hPa | - | - | - | - |
| 1778007403 | 30.56° C | 29% | 1023 hPa | - | - | - | - |
| 1778006443 | 31.11° C | 28% | 1023.2 hPa | - | - | - | - |
| 1778005483 | 32.22° C | 29% | 1023.6 hPa | - | - | - | - |
| 1778004523 | 32.78° C | 28% | 1023.8 hPa | - | - | - | - |
| 1778003563 | 32.22° C | 28% | 1024.1 hPa | - | - | - | - |
* Rain since midnight (hover to see other rain measurements)
** Current wind speed in m/s (hover to see current wind gust speed)